Location: Biltmore Gardens
(41.6070°N, 83.4666°W)
Time: 14:24:16
(UTC+00:00)

Cosmos 220 Rocket - Pass Details

Date: 14 July 2020
Orbit: 575 x 616 km, 74.0° (Epoch: 04 August)

Event Time Altitude Azimuth Distance (km) Brightness Sun altitude
Rises 07:22:36 0° 339° (NNW) 2,818 8.1 -22.5°
Reaches altitude 10° 07:24:50 10° 338° (NNW) 1,908 7.1 -22.3°
Maximum altitude 07:29:04 77° 253° (WSW) 598 3.8 -21.9°
Enters shadow 07:29:19 74° 212° (SSW) 606 3.7 -21.9°
